Theta_e
325 325 323 322 321 322 323 323 323 321 321 323 323 322 322 321 322 324 324 322 323 323 323 323 324 324 324 324 323 323 323 323 324 323 322 323 323 322 324 325 327 330 331 328 323 319 319 320 320 320 320 320 320 319 319 319 318 319 319 318 316 316 315 314 313 313 312 312 311 310 309 309 309 309 308 306 305 305 305 305 304 303 303 303 302 302 301
323 323 324 323 322 322 323 320 319 319 320 321 322 322 322 321 321 321 321 321 322 322 322 322 322 322 322 323 323 323 323 323 323 322 322 322 322 322 323 324 326 329 331 329 322 318 319 319 319 320 320 320 320 319 319 319 318 318 318 317 316 315 314 313 313 312 312 311 310 309 309 309 308 307 306 305 305 305 304 304 303 303 302 302 302 301 301
322 321 323 324 322 321 320 318 318 319 320 320 321 321 320 320 320 320 320 321 322 322 321 321 321 321 321 322 323 322 323 323 322 322 321 321 322 321 321 324 325 324 326 327 322 318 319 319 319 319 320 320 320 319 319 318 318 318 318 317 316 314 314 313 313 312 311 310 309 309 309 308 307 306 305 305 305 304 303 303 303 302 302 302 301 301 301
321 320 322 322 319 320 320 319 319 319 318 320 320 320 319 319 320 320 319 321 322 321 321 321 320 320 319 320 321 321 322 322 322 323 323 323 323 323 322 324 326 326 326 327 323 319 319 319 319 319 319 319 319 319 318 318 317 317 317 316 315 314 313 313 312 311 310 309 309 309 308 306 305 305 305 304 304 303 303 303 302 302 301 301 301 301 301
322 322 321 320 320 323 322 319 319 318 318 320 320 320 320 320 320 320 320 321 321 320 321 320 319 320 320 319 320 321 321 322 322 323 324 324 324 324 323 323 325 326 326 324 321 319 319 319 319 319 319 319 319 318 318 317 317 317 316 315 314 314 313 312 311 310 309 309 309 308 307 305 305 305 304 304 303 303 303 302 302 301 301 301 301 301 301
324 323 320 321 323 323 320 317 317 318 319 320 321 321 321 320 320 320 320 320 321 320 320 320 320 320 320 319 320 320 321 322 322 322 323 323 323 324 324 324 326 326 321 319 319 320 319 319 319 319 319 318 318 318 318 317 317 316 315 314 314 313 312 311 310 309 309 309 308 307 306 305 304 304 304 303 303 303 302 302 301 301 301 301 301 301 300
324 322 319 321 322 319 317 317 318 318 319 320 320 319 319 319 319 319 319 319 320 320 320 320 320 320 320 320 320 320 320 321 322 323 324 324 324 324 324 326 327 323 318 318 319 319 319 320 319 318 318 318 318 318 318 317 317 316 314 313 313 312 310 310 309 309 309 308 307 306 305 305 304 304 303 303 303 302 302 301 301 301 301 301 301 300 300
321 320 319 319 318 317 317 319 319 318 319 320 319 319 320 319 318 319 319 318 318 319 319 320 321 321 321 320 321 321 320 320 321 322 323 322 322 323 323 323 321 318 317 318 318 318 319 319 319 318 318 317 317 317 317 317 316 314 313 312 311 310 310 309 309 309 309 308 306 305 305 304 304 304 303 303 303 302 302 301 301 301 301 301 300 300 300
318 320 320 319 318 317 318 320 319 317 317 318 318 319 320 318 316 318 319 318 318 318 319 320 320 320 321 322 324 325 323 321 320 319 319 319 319 318 318 317 316 316 317 318 318 318 319 318 318 319 317 317 317 316 316 316 315 313 312 311 310 310 309 309 309 309 308 307 306 305 304 305 304 303 303 303 302 302 302 301 301 301 301 300 300 300 300
318 319 318 318 318 317 318 319 318 316 316 318 317 318 320 319 317 317 318 318 319 319 319 319 319 320 321 323 324 325 324 321 320 317 316 315 315 316 315 315 316 316 316 317 318 318 317 317 317 317 316 316 315 314 313 312 312 311 311 310 310 309 309 309 309 309 308 307 306 305 305 305 304 303 302 302 302 302 302 301 301 300 300 300 300 300 299
319 318 317 317 318 317 316 317 318 316 315 316 316 317 319 319 318 317 317 318 318 318 319 319 317 319 321 322 322 321 320 319 318 317 317 315 314 315 315 315 316 316 315 316 317 317 316 316 315 314 314 313 313 312 311 311 311 311 310 310 310 310 309 309 309 308 307 306 306 305 305 305 304 303 303 303 303 302 302 301 301 300 300 300 300 299 298
319 318 318 319 317 315 316 317 318 316 314 315 316 318 318 318 317 316 316 317 318 318 318 317 317 319 321 320 319 318 317 316 316 315 316 315 314 314 314 314 315 315 315 315 316 316 316 316 315 314 313 313 313 312 312 312 312 311 310 310 310 309 309 309 308 308 307 306 306 305 305 304 303 303 303 303 303 302 301 301 300 299 299 300 299 298 297
319 318 318 318 316 315 317 318 317 315 315 316 318 319 319 318 317 317 316 317 318 318 318 317 317 318 318 316 316 316 315 316 315 313 313 314 314 313 313 313 314 315 315 315 315 315 316 316 315 315 314 314 314 313 312 312 311 311 311 311 310 309 310 309 308 307 306 306 305 305 304 304 303 303 303 303 303 302 301 301 300 299 299 299 298 298 297
317 318 318 316 315 315 317 318 317 315 315 318 319 320 320 319 317 318 318 318 317 317 317 317 317 317 315 314 315 315 315 316 315 313 312 312 312 313 313 313 314 314 314 314 314 314 314 315 316 315 315 315 314 313 312 311 311 311 311 311 310 310 309 308 307 307 306 305 305 304 304 304 303 303 302 302 302 302 301 301 300 297 297 297 297 297 296
315 317 317 316 317 318 317 317 316 315 317 320 319 318 318 318 317 318 318 317 317 316 316 317 317 316 315 315 315 315 315 316 314 311 310 310 310 312 313 313 314 313 314 314 313 314 314 314 315 315 315 315 314 313 312 312 312 312 311 311 310 309 308 307 307 306 306 305 305 304 304 304 303 303 302 302 302 301 301 301 298 295 293 295 296 296 295
314 316 316 316 320 322 319 317 316 316 319 321 319 316 317 316 317 318 317 316 317 316 316 317 317 316 315 315 316 315 315 316 314 312 310 310 310 311 312 313 314 314 314 314 314 314 314 314 314 315 315 315 314 313 312 312 312 311 311 310 309 308 307 307 306 306 305 305 305 304 303 303 303 303 302 302 302 301 301 301 297 292 290 292 294 294 293
316 316 316 316 318 321 319 318 318 317 319 320 318 316 316 316 317 317 316 316 317 316 316 317 316 316 315 315 315 315 315 316 315 313 311 310 311 312 313 314 314 314 314 314 314 314 314 314 314 314 315 314 314 313 314 313 312 311 311 310 308 307 307 306 306 306 305 305 304 304 303 303 303 303 302 302 302 301 301 299 295 291 289 290 291 291 291
317 316 315 314 315 318 318 317 318 318 318 319 318 317 317 317 317 316 315 315 316 315 316 317 316 316 316 316 316 316 316 316 314 311 310 311 312 313 314 315 315 314 314 314 314 314 314 314 314 314 315 315 314 314 314 313 312 312 312 309 307 307 307 306 306 306 305 305 304 304 303 303 303 303 303 302 302 301 300 297 294 291 288 288 288 288 289
316 317 318 315 314 316 316 316 318 318 317 318 319 317 317 316 316 315 315 315 316 316 315 316 316 315 315 315 317 317 316 316 315 311 309 310 312 313 314 314 314 315 315 315 315 315 315 314 314 314 314 315 314 314 314 313 312 312 311 309 308 307 307 307 306 305 305 305 304 304 304 303 303 303 302 302 302 301 299 297 294 291 289 287 287 287 288
315 317 318 316 314 315 317 318 319 316 315 316 317 316 316 317 317 316 314 313 316 317 315 315 315 316 316 316 317 316 315 315 314 311 308 310 312 313 313 313 313 314 315 315 315 315 314 314 314 313 313 314 314 314 314 314 313 312 311 309 308 307 308 307 306 305 305 305 304 304 303 303 303 302 302 302 301 300 299 297 294 292 290 288 288 287 287
316 317 317 316 316 317 319 318 317 315 314 315 316 318 318 318 317 316 314 312 312 313 315 318 318 317 318 318 317 316 316 315 313 310 309 311 312 312 312 313 313 313 314 314 315 315 315 315 315 314 313 313 313 313 314 314 313 312 310 308 307 308 308 307 306 305 305 305 304 304 303 302 302 302 301 301 301 300 299 297 294 293 291 291 290 288 286
317 318 316 315 315 316 317 315 314 314 314 314 315 318 317 315 315 316 316 314 311 310 312 316 318 318 318 317 315 316 315 313 311 310 310 311 312 312 312 313 313 313 313 314 314 315 315 315 315 314 313 313 313 314 313 313 313 312 309 308 308 309 308 306 306 306 305 305 304 304 303 302 302 301 300 300 299 299 298 296 294 293 293 292 291 289 286
317 316 314 313 313 315 315 314 314 315 315 315 315 316 315 315 314 314 316 315 314 315 314 312 313 317 318 314 313 316 315 311 310 311 311 311 311 312 312 312 312 312 312 313 313 314 314 314 315 315 314 314 314 313 313 313 313 311 310 308 308 307 306 306 306 306 305 305 304 304 303 303 302 302 300 299 298 298 297 295 294 293 293 293 292 290 287
317 316 316 315 314 315 315 313 315 315 313 314 316 315 315 315 312 312 316 315 314 318 320 314 311 314 314 311 312 315 314 311 311 312 311 311 311 312 312 312 312 312 312 312 312 313 313 314 314 315 314 314 313 312 312 312 312 310 309 309 308 306 305 306 307 306 305 305 305 304 304 303 302 301 300 298 297 297 296 295 293 293 293 293 292 290 288
315 317 317 314 313 315 314 313 316 315 310 310 313 314 313 313 310 310 313 312 309 313 319 316 312 312 312 312 312 312 311 311 312 312 311 311 311 311 311 312 312 311 311 311 311 312 313 313 314 315 315 314 313 311 311 311 311 310 309 309 308 307 306 307 307 306 306 305 305 304 304 303 302 301 300 298 298 297 296 294 294 294 293 293 293 291 288
316 315 314 312 314 316 314 312 316 316 309 307 311 312 310 310 310 308 308 308 307 308 311 310 310 311 312 312 312 311 310 311 312 312 312 311 311 310 311 311 311 311 311 311 311 311 313 313 314 314 314 314 314 312 311 310 310 310 310 309 308 308 307 307 307 306 305 305 305 304 303 303 302 301 300 299 299 298 296 294 294 294 294 293 293 292 290
317 314 311 311 314 318 317 314 314 313 308 306 309 310 307 307 308 308 307 307 307 307 307 308 308 308 309 311 311 310 310 310 310 311 311 311 311 311 311 311 312 312 311 311 311 311 312 313 313 313 313 314 314 313 312 311 310 309 309 308 308 309 308 308 307 306 306 305 305 304 303 302 301 301 300 300 299 298 297 296 295 295 294 294 294 293 291
319 316 312 310 311 314 315 312 309 308 307 307 307 307 307 309 309 310 311 310 308 306 307 307 307 306 306 308 309 308 308 309 308 308 309 310 311 311 311 311 312 311 311 311 311 311 312 313 313 313 313 313 313 313 312 311 310 309 309 309 309 309 309 308 307 306 306 305 305 305 303 302 301 301 301 300 299 298 298 297 296 295 295 294 294 293 292
321 319 315 313 311 310 310 310 311 312 312 310 308 307 309 311 313 314 314 311 307 307 308 307 306 307 306 306 306 306 305 306 307 307 308 309 309 309 310 310 311 311 310 310 310 310 311 312 312 313 313 312 312 312 312 311 310 309 309 309 309 309 308 308 307 306 306 305 305 305 304 303 302 301 300 299 299 298 298 297 296 294 294 295 294 293 292
321 318 315 316 316 314 312 312 315 317 316 313 312 311 311 311 314 316 315 311 308 310 310 306 306 307 306 305 306 305 305 305 306 307 307 307 307 308 307 308 311 312 311 310 310 310 310 311 312 313 313 312 312 312 311 311 310 309 308 308 308 309 308 307 306 306 305 305 305 304 304 303 302 301 299 298 298 297 297 296 295 294 294 294 294 293 293
318 316 316 318 318 315 314 313 314 315 315 315 315 314 313 313 314 314 314 313 311 311 308 305 305 306 306 305 306 305 305 305 305 305 306 306 307 307 306 307 310 311 311 311 310 310 310 311 311 312 312 312 312 312 312 311 310 309 308 307 307 308 308 307 306 305 305 305 305 304 304 304 302 300 298 297 296 296 295 294 294 294 294 294 294 294 293
315 316 318 319 317 314 314 314 312 312 313 313 314 313 312 311 312 312 313 313 311 308 306 305 305 306 306 306 306 305 304 304 304 304 305 306 306 306 306 306 309 310 311 311 310 309 310 311 311 312 312 312 312 312 312 311 310 309 307 306 306 306 306 306 305 305 305 305 304 304 303 303 301 299 298 297 296 296 295 294 294 294 293 294 294 294 293
314 313 315 315 314 313 312 312 310 311 313 313 311 308 306 305 306 307 309 308 307 305 305 305 306 306 306 306 306 305 304 304 304 304 304 305 305 306 306 305 306 307 308 308 307 307 309 311 312 312 312 312 312 312 311 309 309 309 308 307 306 306 306 306 305 305 304 304 304 303 303 302 301 299 298 298 297 297 296 295 295 294 293 293 294 293 293
313 312 311 311 310 310 310 311 310 310 311 310 306 302 301 302 303 304 304 304 304 304 305 306 306 307 307 306 305 304 304 304 304 303 303 303 304 305 305 304 304 305 305 305 307 308 310 312 313 313 312 312 312 312 311 309 308 307 307 307 307 307 307 306 305 304 304 304 304 304 303 302 301 300 299 299 299 298 296 295 295 294 293 293 293 293 292
308 308 308 307 306 305 306 307 308 308 308 309 307 304 302 302 303 303 303 303 303 304 305 306 306 307 307 306 305 304 303 303 304 303 303 303 304 304 304 304 304 304 305 306 308 309 310 311 312 312 312 312 312 311 311 310 309 308 307 307 307 308 308 306 305 305 305 305 304 304 303 302 302 301 300 300 300 299 296 295 294 294 294 294 293 293 291
307 308 307 306 304 304 303 303 304 304 303 304 305 303 302 302 302 303 303 303 303 304 305 306 306 307 306 305 305 304 303 303 303 303 303 304 304 303 304 304 303 304 306 309 309 308 309 310 311 312 312 311 311 311 311 311 310 310 309 308 307 307 307 305 305 305 305 305 304 304 303 303 303 302 301 301 301 299 296 295 294 294 294 294 293 292 290
307 307 306 305 304 304 304 303 302 302 302 301 301 301 301 302 302 302 302 303 303 304 304 305 306 306 306 305 305 305 304 304 304 303 303 304 303 303 303 303 303 305 308 310 309 307 307 307 309 310 310 310 310 310 310 310 310 310 310 309 309 308 307 305 304 304 304 304 304 304 303 303 302 301 301 300 300 298 297 295 294 294 294 294 293 292 291
306 305 304 304 303 303 303 302 302 302 302 301 301 302 302 302 302 302 302 303 303 303 303 304 304 305 305 305 305 304 304 304 304 303 303 304 303 303 303 303 304 307 309 309 308 307 306 306 307 308 308 307 308 309 309 310 309 309 309 309 309 309 308 307 305 304 304 304 304 304 303 303 302 302 301 300 299 298 297 295 294 294 294 293 293 292 292
305 303 303 302 302 302 302 302 302 302 301 301 301 301 302 302 302 302 302 303 303 303 302 303 303 303 304 303 303 303 303 304 304 303 304 304 304 303 303 303 304 307 309 308 307 307 306 306 306 306 305 305 307 308 308 308 308 308 308 308 308 308 308 307 305 304 304 304 304 304 303 302 302 302 301 300 299 298 297 295 294 294 294 294 293 293 292
303 302 301 301 301 301 301 301 301 301 302 301 301 301 301 301 302 302 302 302 302 302 302 302 303 303 303 303 303 303 303 304 304 303 304 304 303 302 303 303 304 306 307 307 307 307 306 305 305 305 304 305 306 306 307 307 308 307 307 307 307 307 307 306 305 304 303 303 303 303 303 302 302 301 301 300 300 299 298 296 294 294 294 293 293 293 292
302 301 301 301 301 301 301 301 301 301 301 301 301 301 302 302 301 301 301 301 302 302 303 302 302 302 303 303 303 303 303 304 304 303 303 303 303 302 302 302 303 304 306 307 307 306 305 305 305 305 304 304 305 305 306 307 307 307 307 307 307 307 307 306 305 304 303 303 302 302 302 302 302 301 301 300 300 300 298 296 294 294 294 294 293 293 293
301 301 301 300 300 300 301 301 300 300 301 301 301 302 302 302 301 301 301 302 302 302 302 302 302 302 302 303 303 303 303 303 303 303 302 302 302 302 302 302 303 303 305 306 306 305 304 304 305 305 305 305 305 304 305 306 307 307 307 307 307 306 306 306 306 305 304 303 303 302 301 301 301 301 301 301 300 300 298 296 295 294 294 294 293 293 293
300 300 300 300 300 300 301 300 300 300 301 301 301 302 302 302 302 302 302 302 302 302 302 302 301 301 301 302 302 302 302 303 303 303 302 302 303 302 302 302 303 303 304 305 305 304 304 305 305 305 305 305 305 305 305 305 306 307 307 306 306 306 305 305 305 305 304 303 302 302 301 301 301 301 301 301 301 300 299 297 295 294 294 294 294 293 293
301 301 300 300 300 300 301 301 301 300 300 301 301 301 302 301 301 302 302 301 301 302 302 301 300 300 301 301 302 302 302 302 303 302 302 302 302 302 302 302 302 302 303 303 304 304 305 305 306 305 305 305 305 305 305 305 305 305 306 306 305 305 304 303 303 304 304 303 302 302 301 301 301 301 301 301 301 300 299 298 297 295 295 295 294 293 293
301 300 300 301 301 301 301 301 301 301 301 301 301 301 301 301 301 302 302 302 301 301 301 300 300 301 301 302 302 302 302 302 302 301 301 301 302 302 302 301 302 302 302 302 303 304 304 304 305 305 305 305 305 305 304 304 304 304 304 304 304 304 303 303 302 303 303 302 302 302 302 302 302 302 301 301 300 300 300 300 299 297 296 295 294 293 293
300 300 301 301 301 301 301 301 301 301 301 301 301 301 301 301 301 302 302 302 302 302 302 301 301 302 302 302 302 303 303 303 302 301 300 301 302 302 301 301 302 302 302 302 303 303 303 304 304 304 304 304 305 304 304 304 304 304 304 304 303 303 303 302 302 302 302 302 302 302 302 303 303 302 301 300 300 300 300 300 300 299 298 297 295 294 294
300 301 301 301 301 301 301 301 301 301 301 300 300 300 301 301 301 301 302 302 301 301 301 301 302 302 302 302 303 303 302 302 302 302 301 301 302 302 301 301 301 302 302 302 302 303 303 304 304 304 304 304 304 304 304 304 304 303 303 303 303 303 303 302 302 302 302 302 302 302 302 302 302 301 301 300 300 300 300 300 300 300 299 297 295 294 293
300 300 300 300 300 300 301 301 301 300 299 300 300 300 300 301 301 301 301 301 300 299 299 300 301 301 301 302 302 302 301 301 302 302 302 301 302 302 302 301 301 302 302 302 302 303 303 303 304 304 304 304 304 304 304 304 303 303 303 303 302 302 302 302 302 302 302 302 301 301 301 301 301 301 301 301 301 300 300 300 300 301 300 298 295 294 294
300 300 300 300 300 300 301 301 300 299 299 300 300 300 300 301 300 299 299 299 299 299 299 299 299 299 299 300 300 300 300 300 301 302 301 301 302 302 301 301 301 302 301 301 301 301 302 303 304 304 304 303 303 304 303 303 303 303 302 302 302 302 302 302 301 301 301 301 301 301 301 300 300 301 301 301 301 301 301 301 300 301 301 299 296 294 294
300 300 300 300 300 300 300 300 300 299 300 300 300 300 300 300 299 298 298 298 298 298 298 298 298 298 298 298 299 299 299 299 300 300 300 301 301 301 301 301 301 301 301 301 301 301 301 301 302 303 304 304 304 303 303 303 303 303 302 302 302 301 301 301 301 301 301 301 301 301 301 300 300 300 300 300 300 300 300 300 300 300 300 299 297 295 294
300 300 300 300 300 300 300 300 300 300 300 300 300 300 300 300 299 298 297 297 297 297 297 297 297 297 298 298 298 299 299 299 299 299 299 299 299 299 299 300 300 300 300 300 300 300 299 299 300 302 304 304 304 303 303 303 303 303 302 302 301 301 301 301 300 300 300 300 300 300 300 300 300 299 299 299 299 300 300 300 300 299 298 297 296 295 295
299 299 299 299 299 299 300 300 299 299 300 299 299 298 299 299 298 297 297 297 297 297 297 296 296 297 298 298 298 298 298 298 298 298 298 298 298 298 299 299 299 299 299 299 299 300 300 300 300 302 303 303 303 302 302 302 303 303 302 302 301 300 300 300 300 300 300 300 300 300 299 299 299 299 299 299 299 299 300 299 299 298 297 296 295 295 295
Wind_Speed
6 7 8 9 5 5 7 6 7 8 5 2 4 5 4 3 2 5 4 6 7 6 6 7 7 6 7 8 6 5 6 7 6 4 6 8 7 8 8 5 3 1 2 2 2 9 13 16 19 20 21 22 18 17 22 25 25 28 30 28 23 21 22 21 17 13 11 9 6 4 3 4 6 4 5 6 5 4 3 2 4 6 8 10 11 11 11
5 5 7 7 5 4 4 5 6 7 6 3 3 4 3 4 5 6 7 10 8 4 6 8 7 6 6 6 4 3 4 6 6 4 3 5 7 7 8 7 5 2 4 5 8 11 12 14 16 17 20 23 22 24 27 27 26 29 31 28 25 24 24 20 15 13 10 8 6 4 4 5 4 6 7 6 5 4 3 5 6 8 10 11 11 11 11
5 5 6 6 5 4 2 6 8 8 7 6 4 3 3 2 3 4 6 6 4 3 6 7 7 6 6 6 5 4 5 5 5 4 4 5 6 8 8 8 6 3 5 7 8 12 14 17 20 22 25 26 27 28 28 27 29 32 32 30 28 26 23 18 14 12 9 7 5 4 4 5 7 8 8 6 5 4 4 6 8 9 10 11 11 10 10
5 4 5 8 8 3 4 6 10 9 7 5 4 2 3 3 3 4 4 3 2 4 6 6 6 7 8 7 7 6 6 5 5 5 4 5 5 6 8 8 6 2 4 5 6 10 14 19 22 23 24 25 26 26 27 29 30 29 28 29 28 26 21 17 15 11 8 6 4 3 5 8 9 8 7 6 4 4 5 7 9 10 10 10 10 9 10
5 5 7 9 6 5 4 4 5 3 3 3 1 1 2 3 2 2 3 3 3 4 5 6 7 8 8 8 7 6 6 6 6 5 6 5 4 4 7 8 7 4 0 3 5 9 12 15 19 23 25 25 25 25 27 27 24 23 26 28 27 23 19 17 13 9 7 7 6 6 9 10 9 8 6 4 3 4 5 7 9 10 10 9 9 10 11
3 7 8 5 5 5 1 3 4 3 3 3 2 2 4 5 2 1 2 2 4 5 5 5 6 6 6 6 6 5 5 5 6 6 7 6 5 4 5 7 7 6 5 1 4 8 10 12 15 18 23 25 25 26 27 26 24 25 26 26 24 21 18 15 11 9 9 9 8 10 11 11 9 7 4 3 3 3 5 7 9 10 9 10 11 11 11
2 5 6 6 4 1 2 5 6 5 5 4 3 4 5 5 3 2 2 4 5 5 5 5 5 6 6 6 6 6 6 6 6 7 7 7 6 5 6 6 6 7 9 5 1 3 6 10 12 13 18 21 22 24 25 26 28 28 26 24 23 20 17 14 11 11 11 9 10 12 12 10 8 5 3 2 1 2 5 7 9 10 10 10 11 11 9
1 3 4 2 0 1 1 4 6 4 4 4 4 3 3 4 4 4 4 6 6 6 7 7 5 6 6 5 5 5 7 8 6 6 7 7 6 6 6 6 6 7 8 8 7 5 3 7 10 10 15 19 20 21 25 27 28 27 26 24 21 17 15 14 12 12 11 11 12 13 12 9 6 3 2 1 1 1 3 6 9 10 10 11 12 10 8
1 1 2 2 1 2 3 5 4 2 2 3 2 1 3 4 4 4 5 6 7 7 7 7 7 6 4 4 4 5 6 7 7 7 8 8 8 8 9 9 7 5 5 7 10 10 8 6 7 8 12 19 22 22 24 26 27 26 25 22 18 15 15 14 13 12 12 13 14 13 11 9 5 2 2 1 0 1 3 6 8 8 9 10 11 9 8
1 1 2 2 3 3 2 6 7 4 4 4 3 1 2 4 5 5 4 6 7 7 7 7 7 5 3 3 5 5 6 7 7 7 9 10 11 12 13 13 10 4 3 5 6 7 8 6 5 8 12 19 24 23 23 25 25 25 22 18 16 16 16 15 14 13 14 15 15 14 11 8 5 2 1 1 1 2 4 6 5 6 9 9 9 7 8
2 3 1 2 1 1 3 7 9 8 5 3 3 1 2 4 5 5 5 6 7 7 7 7 5 5 3 3 5 6 6 6 6 6 8 11 14 15 15 16 11 4 1 2 1 1 2 1 5 10 14 17 19 19 19 19 19 19 19 18 18 18 17 15 14 15 16 16 15 14 11 8 5 3 2 1 3 5 4 4 3 6 7 7 6 5 7
1 1 0 2 2 2 5 6 8 9 6 2 5 3 4 5 5 6 5 6 7 7 6 5 3 2 3 4 6 8 7 7 7 8 8 10 13 15 16 15 10 6 4 3 4 3 4 6 9 12 15 15 15 16 17 17 18 20 20 20 21 19 16 14 16 17 16 15 14 13 11 8 6 5 4 3 5 6 5 2 2 4 5 5 5 4 5
2 0 1 2 2 3 5 6 8 9 4 6 4 2 5 5 7 7 5 6 8 6 5 4 3 4 6 7 8 9 9 8 9 11 12 13 14 14 16 15 11 10 8 6 7 7 6 9 12 14 15 14 16 19 21 22 25 26 23 21 20 17 15 17 19 18 16 15 14 13 10 8 8 7 6 5 7 7 5 3 1 3 3 4 4 3 5
2 0 1 2 2 3 5 5 7 5 3 2 2 5 5 5 7 7 6 7 7 6 5 5 5 5 8 8 8 8 9 8 8 11 14 15 14 14 16 16 13 12 13 11 11 12 11 10 12 15 16 16 19 21 22 25 27 25 22 21 20 18 19 21 21 18 17 16 15 12 10 9 9 9 7 6 9 9 7 5 3 4 4 3 3 3 5
1 1 2 2 2 4 4 2 5 3 2 3 5 4 4 6 6 6 6 6 6 6 5 6 7 7 8 8 7 7 8 7 7 9 11 12 13 15 16 16 14 11 12 12 12 13 15 13 13 16 19 21 22 21 23 26 26 24 23 22 22 23 24 24 21 19 18 17 15 12 9 9 10 9 8 9 11 10 8 5 3 4 4 3 2 3 4
1 1 1 1 3 5 3 1 2 2 3 5 4 3 4 6 5 5 5 5 7 6 6 6 7 7 7 8 7 7 7 7 7 8 10 12 14 16 17 15 10 7 6 7 8 9 11 11 11 12 17 22 23 23 24 25 24 24 24 24 25 26 25 23 21 19 18 17 14 11 9 11 11 10 10 13 13 11 8 5 3 4 4 3 3 3 4
2 3 5 5 4 5 3 3 4 6 6 6 5 5 5 5 5 4 4 6 7 7 6 6 6 6 7 7 7 7 7 8 8 8 10 12 12 13 14 11 6 5 7 7 7 9 10 10 11 12 13 18 23 26 26 26 24 23 22 24 27 27 25 23 21 19 19 17 13 11 11 12 11 11 13 16 15 12 9 6 3 3 3 3 4 3 3
3 3 4 4 3 5 5 4 5 6 6 6 5 5 5 5 5 5 5 6 7 7 5 5 5 7 7 7 7 7 7 7 9 9 11 14 14 12 10 9 9 10 11 10 9 11 12 12 12 13 13 15 21 25 26 25 24 22 23 26 29 28 26 23 20 20 19 16 14 13 11 10 11 13 16 18 16 13 10 6 3 2 2 3 3 3 3
2 3 4 3 3 6 7 5 5 5 5 5 5 5 5 5 6 6 6 6 6 6 5 5 6 8 8 7 7 7 7 7 8 8 10 13 15 14 12 12 13 13 12 11 11 12 13 14 15 15 15 17 19 21 22 23 24 24 26 29 29 28 24 20 20 21 20 17 16 14 11 11 13 15 17 19 17 14 11 7 3 1 1 2 3 3 3
2 4 7 5 5 7 6 5 5 5 6 6 5 4 5 5 6 6 6 6 5 3 4 6 7 7 8 7 6 7 7 7 7 8 10 13 16 17 16 15 15 13 12 13 13 13 15 17 18 18 18 18 19 20 21 23 25 27 30 30 30 27 22 19 22 23 20 18 17 15 13 14 15 15 17 19 18 15 12 8 4 3 2 1 1 2 2
2 5 6 5 5 6 7 6 6 6 6 6 6 6 5 5 6 6 7 8 5 0 1 6 6 6 7 7 6 7 7 6 7 9 13 15 17 18 19 19 17 16 14 15 15 16 17 19 20 20 19 18 18 18 20 23 25 30 31 30 30 27 22 22 24 22 20 19 17 15 16 16 15 14 17 19 18 15 12 8 5 3 2 1 1 1 1
3 5 5 4 2 4 7 8 8 8 6 5 4 5 6 6 7 6 7 9 6 1 5 7 5 4 6 7 6 6 6 7 10 13 15 17 18 19 20 19 16 15 15 15 16 17 19 21 22 20 19 18 17 17 18 20 25 30 31 30 28 25 23 24 24 21 20 20 17 16 19 17 14 14 17 18 18 15 11 9 7 4 3 2 1 2 1
5 7 7 5 3 4 7 9 8 8 6 4 4 6 6 7 8 7 6 7 6 4 6 9 7 5 6 7 7 6 6 10 14 15 16 16 17 19 20 18 15 14 15 15 15 16 18 20 21 21 20 19 17 17 18 21 25 30 31 29 24 20 20 22 22 21 22 20 17 17 19 17 15 16 17 18 18 15 11 10 9 6 5 4 1 1 2
5 7 8 6 4 5 8 8 8 8 6 4 5 7 7 6 7 7 6 5 5 5 5 7 6 6 7 9 9 6 7 11 15 16 16 17 17 19 21 19 17 17 17 17 17 17 17 18 20 20 21 20 17 17 20 23 26 30 30 28 24 21 22 24 23 22 22 19 18 19 20 18 17 18 18 18 17 15 13 13 12 9 8 7 4 1 2
5 7 7 5 5 7 8 6 6 7 6 4 5 7 7 8 8 8 6 5 6 7 6 6 7 8 9 10 11 9 9 12 15 15 16 17 17 17 18 19 20 21 20 19 19 18 18 19 19 20 20 20 16 16 19 23 27 28 28 27 26 27 28 27 24 22 22 20 19 21 21 20 19 20 21 20 19 18 17 16 14 12 11 10 7 5 3
7 7 5 3 4 5 4 2 4 6 7 7 5 5 8 8 8 8 8 9 9 9 8 7 9 9 9 11 12 12 12 14 16 17 15 15 15 14 14 16 20 23 24 24 22 20 19 19 19 18 19 18 17 17 18 20 25 28 28 28 29 28 27 26 25 24 22 21 21 22 22 22 21 22 23 22 21 20 19 18 16 15 14 13 11 8 6
6 5 3 3 5 5 3 2 4 5 7 7 5 5 7 8 8 10 11 12 12 13 13 11 11 12 12 13 13 14 14 15 15 16 15 16 16 16 14 14 17 21 24 27 26 23 21 19 18 17 16 16 16 18 19 20 23 27 28 29 29 26 24 24 25 25 23 21 21 22 23 22 22 22 22 22 21 20 19 19 18 17 15 14 14 12 9
5 4 3 3 3 5 6 5 5 4 5 5 4 4 6 8 9 8 8 9 10 12 14 13 12 11 12 13 13 14 15 15 14 14 15 17 20 21 19 16 14 15 19 25 28 26 22 19 18 17 15 14 13 17 20 22 25 27 28 29 27 25 24 25 26 25 24 23 22 23 24 23 22 21 21 22 22 20 19 18 17 16 14 13 13 13 12
5 4 4 5 5 4 3 4 5 5 6 6 5 5 4 5 6 6 6 6 7 8 9 11 12 12 12 13 13 12 12 13 14 16 17 19 21 23 22 19 15 13 15 20 24 24 22 18 16 17 17 14 10 12 17 20 24 27 29 29 27 25 25 26 27 26 24 22 22 24 25 23 21 20 20 21 21 21 20 19 17 16 14 12 13 15 16
5 4 3 2 0 2 3 4 5 6 6 6 5 5 5 5 5 6 7 7 7 6 8 10 11 12 14 15 15 14 14 14 15 19 22 23 22 22 22 19 16 14 15 18 21 22 22 19 17 17 17 15 11 10 12 15 18 21 25 28 29 28 27 27 27 25 22 20 22 24 23 21 20 20 20 21 21 20 19 19 17 16 15 14 15 18 18
3 2 1 1 2 3 3 5 6 6 7 6 5 6 7 6 6 7 7 7 6 7 10 11 10 11 13 15 17 19 19 17 17 19 23 25 25 24 21 17 13 14 17 20 22 22 22 21 20 19 17 15 14 13 12 14 17 18 19 20 22 25 28 29 27 24 22 21 22 24 22 21 21 21 21 21 20 19 19 18 17 16 15 16 18 19 17
2 3 4 3 3 4 5 6 6 6 7 7 6 6 7 7 7 7 7 7 8 10 10 10 11 13 16 17 19 21 21 19 19 20 22 25 26 22 17 14 13 15 19 22 23 23 22 20 21 21 18 15 15 14 12 14 18 19 18 17 18 21 25 27 26 24 23 22 23 23 22 21 22 22 22 22 21 19 19 18 17 16 17 18 19 18 16
4 2 4 4 4 5 6 6 6 6 7 7 6 7 8 8 7 7 8 9 11 11 11 12 15 18 18 17 19 21 20 19 18 19 21 24 24 18 12 11 14 16 17 19 21 23 22 20 20 21 19 15 13 12 10 11 16 20 21 22 22 22 24 26 27 26 24 23 23 23 23 22 22 23 23 23 21 20 19 19 19 19 19 19 18 18 17
5 4 4 4 3 3 4 5 6 6 6 6 6 7 8 9 10 10 11 11 9 9 12 15 18 19 18 17 18 20 18 13 11 13 18 24 25 19 14 14 17 18 18 19 19 19 18 17 18 19 18 15 13 11 9 9 14 19 22 23 22 21 23 26 27 26 25 24 24 24 23 22 22 23 24 24 22 21 19 19 20 20 19 19 18 18 16
4 3 2 3 4 5 6 5 5 5 5 5 6 6 9 11 12 12 12 12 11 12 14 16 17 18 18 17 17 18 15 12 12 14 19 24 26 23 18 18 19 19 18 16 13 11 11 12 14 16 17 14 13 12 11 10 13 16 18 18 19 22 25 27 28 28 27 27 26 25 25 25 24 24 25 24 23 21 20 20 21 20 19 19 19 19 17
4 3 1 3 5 6 6 6 7 7 6 6 6 7 9 12 13 12 13 15 16 15 15 14 14 15 16 16 17 17 17 17 18 18 19 22 25 24 22 19 18 16 13 10 7 7 8 9 11 13 14 13 12 12 12 12 13 14 14 15 17 21 24 26 29 30 29 28 27 27 27 27 26 26 27 26 24 22 22 22 22 20 20 21 21 20 18
2 1 3 5 7 9 10 10 10 10 9 8 9 9 10 12 14 16 17 18 18 17 15 15 14 13 14 17 19 20 21 22 21 18 17 21 25 24 20 18 17 13 9 7 6 7 8 9 9 10 11 11 12 12 12 11 12 13 14 15 16 18 21 25 28 28 28 28 28 28 27 27 26 27 27 26 25 23 23 24 23 21 21 22 22 21 19
4 5 6 6 7 8 9 11 12 12 12 11 11 13 14 16 17 18 17 17 17 18 18 17 15 14 14 16 17 19 21 23 21 17 17 22 25 21 16 14 15 11 8 6 6 8 9 9 9 9 10 10 10 11 11 11 10 9 10 12 14 16 20 25 27 28 28 29 29 28 28 28 28 28 27 26 25 24 25 25 24 23 23 23 23 22 20
5 5 5 6 7 7 9 10 12 14 13 12 13 15 18 20 20 17 16 16 18 20 21 20 17 13 12 12 13 15 17 18 18 16 16 19 22 20 15 15 16 12 9 8 9 9 9 8 8 9 10 10 10 10 11 11 11 10 9 10 12 14 18 23 27 29 30 30 30 29 29 28 28 28 28 27 26 24 24 25 25 24 24 23 23 23 22
2 2 3 5 6 7 8 9 10 12 14 14 14 16 20 22 20 16 16 18 20 21 22 21 17 14 13 11 11 14 17 18 18 17 15 15 18 17 15 17 21 16 11 11 11 10 9 8 8 9 11 12 11 11 11 11 11 12 12 12 12 13 15 19 23 27 29 28 27 27 28 27 28 27 27 27 25 24 24 25 26 25 24 24 24 24 23
1 2 4 5 6 6 7 8 9 11 14 15 17 19 22 23 20 17 16 18 19 19 19 18 16 16 17 15 14 17 20 19 19 17 13 11 13 12 9 14 22 22 15 13 13 12 13 14 14 14 13 13 13 13 13 13 13 13 14 14 15 15 15 16 18 23 26 27 27 27 28 28 29 28 27 26 24 23 24 26 27 26 25 25 25 25 24
2 3 4 5 5 6 7 8 8 10 11 13 16 18 20 19 18 16 16 16 17 16 17 17 19 20 21 17 14 15 16 16 17 16 13 11 11 10 8 13 21 21 15 12 12 12 13 15 16 17 15 13 12 14 14 14 15 15 15 15 16 16 16 16 17 20 23 26 27 27 27 27 27 27 26 25 24 24 25 27 27 27 26 26 25 25 25
4 5 5 5 5 5 6 7 7 8 9 11 13 14 14 14 15 15 15 15 15 14 14 16 19 21 22 20 16 13 13 14 16 17 17 17 17 15 13 16 21 22 19 17 16 15 14 14 15 16 15 13 13 14 14 14 15 15 16 16 17 17 17 17 17 18 21 23 25 25 25 25 26 27 26 24 24 24 25 26 27 27 27 26 26 26 26
5 5 6 6 5 5 6 6 7 8 9 10 12 12 12 13 15 16 15 15 14 13 14 16 16 16 18 19 18 15 15 15 14 15 15 16 17 19 18 20 25 27 25 20 16 15 16 17 17 17 15 14 14 15 14 14 13 14 15 17 18 18 17 17 17 17 19 22 24 25 25 25 25 26 25 25 25 25 24 24 26 28 27 26 26 26 27
6 7 6 5 5 7 7 7 8 9 11 12 13 14 14 16 18 19 18 18 16 14 14 16 14 12 14 17 17 16 15 13 11 11 11 8 9 15 20 22 25 27 24 16 12 13 14 15 15 16 16 16 16 16 16 15 14 13 14 16 18 17 17 16 16 16 17 19 22 24 25 24 23 23 24 25 26 25 24 23 25 26 26 26 27 28 28
7 8 8 7 7 8 9 9 11 13 15 14 13 15 18 21 21 20 20 21 19 16 16 17 15 14 16 18 16 15 16 17 15 15 12 8 8 14 19 20 23 27 26 19 14 13 14 15 15 15 16 17 17 18 18 17 16 15 15 15 16 16 16 15 15 15 16 18 20 21 22 22 21 20 20 22 25 26 24 22 22 24 25 26 28 29 29
9 10 9 9 10 12 11 10 12 15 14 10 8 12 18 22 21 20 20 21 20 20 21 22 20 18 18 18 14 12 14 17 16 16 15 12 11 13 15 16 19 25 27 21 15 15 15 15 15 15 15 15 16 17 18 19 18 17 17 15 15 15 15 15 14 15 16 17 18 19 20 20 20 18 17 18 21 24 24 22 22 23 25 27 29 30 30
8 8 9 10 11 11 11 10 10 11 10 9 9 14 19 21 20 20 20 19 19 20 22 23 22 20 19 17 14 13 13 13 12 12 15 15 14 14 14 13 16 21 24 21 16 15 15 14 14 15 15 15 16 17 18 18 18 18 18 17 16 15 15 15 15 15 17 18 19 18 19 19 20 19 18 18 18 20 22 22 22 24 25 27 29 31 31
6 7 9 9 8 8 8 7 7 9 11 12 14 18 19 18 16 16 17 16 16 16 16 17 18 17 17 16 16 18 18 16 14 15 16 16 14 14 14 13 13 17 20 19 17 16 15 13 13 14 14 15 16 17 18 18 19 19 19 19 18 17 16 15 15 15 16 18 19 20 20 20 21 21 21 20 18 18 19 21 23 25 26 27 29 31 31
6 7 7 7 7 8 8 8 9 12 14 15 17 19 19 16 12 12 15 16 14 13 14 16 17 18 18 18 19 20 21 20 18 17 17 17 16 16 15 14 14 17 19 18 16 15 13 13 13 14 13 13 14 16 17 18 19 20 20 21 21 19 18 17 16 15 16 17 19 20 21 21 22 22 22 21 19 18 18 19 21 24 27 29 31 31 31
6 7 8 9 10 11 13 13 13 15 16 16 17 19 19 16 13 13 16 16 13 12 15 17 20 22 22 21 20 21 22 20 18 18 19 19 19 18 17 17 18 20 20 17 14 13 14 14 14 14 13 13 15 17 19 20 21 21 22 22 21 21 20 19 17 17 17 17 18 19 20 21 21 22 22 21 20 20 19 19 20 22 25 29 31 31 29
7 9 11 12 13 14 15 16 17 16 16 14 12 12 12 12 13 14 15 15 14 15 15 16 17 21 23 22 20 20 21 20 19 19 20 20 19 19 19 18 19 20 19 17 15 14 14 14 14 13 13 14 16 18 20 22 23 23 24 23 21 20 20 19 19 18 18 17 17 19 20 20 21 21 21 21 21 21 21 21 21 22 23 26 29 29 26
Wind_Direction
242 232 254 269 264 249 265 292 313 326 346 155 200 237 221 162 227 263 296 331 314 304 321 318 306 308 309 301 295 290 292 297 298 302 311 317 331 337 333 342 6 10 231 243 123 123 136 148 158 171 185 193 200 201 197 197 198 199 204 210 210 202 194 191 191 193 196 201 215 240 273 281 277 253 183 163 159 150 130 72 34 19 9 1 354 351 349
272 261 268 271 271 278 305 353 359 359 2 332 273 274 243 207 233 265 301 305 300 325 338 319 316 318 305 301 307 295 296 304 301 301 320 326 333 333 325 325 341 58 95 97 102 114 130 140 145 160 181 192 200 204 201 197 197 199 201 204 204 195 189 190 190 189 193 202 214 241 266 258 226 180 166 158 143 125 85 47 31 18 8 1 357 355 353
295 276 277 283 293 295 357 27 16 15 5 347 353 343 308 283 284 304 311 300 299 343 334 321 328 332 331 341 347 332 320 320 324 341 2 1 351 337 326 327 336 23 94 108 117 125 139 152 160 175 188 193 199 206 203 195 195 199 201 202 200 193 188 188 186 185 193 199 207 236 238 199 173 165 160 145 128 102 61 38 23 13 6 2 360 357 355
292 278 298 307 315 348 68 37 21 22 5 352 19 354 304 311 327 335 345 339 334 334 329 333 339 341 348 348 340 339 339 333 334 342 351 2 5 343 325 318 317 342 99 115 131 145 160 171 178 188 195 195 198 202 199 193 194 198 200 199 195 189 186 183 182 186 195 198 208 219 185 166 159 154 146 132 114 77 47 29 17 11 4 1 1 357 352
286 303 317 315 336 33 46 5 2 11 338 337 358 269 314 335 326 354 20 8 342 330 330 339 343 345 347 339 333 338 334 328 331 335 339 342 341 327 312 307 305 299 216 143 162 176 188 196 199 201 202 201 201 198 190 187 190 197 200 196 189 184 180 178 180 187 193 193 194 182 167 161 155 147 137 122 98 67 42 26 16 10 5 1 358 353 351
279 308 323 343 34 49 4 281 280 277 300 329 344 12 22 22 20 50 45 332 318 323 326 329 328 328 328 322 315 312 315 323 328 330 335 331 322 311 294 299 308 301 298 303 169 192 215 228 225 214 205 202 199 191 184 182 187 197 200 192 182 177 175 177 182 183 182 180 175 169 166 161 153 144 129 109 97 62 32 24 15 7 2 356 353 353 355
257 319 352 24 41 66 215 247 266 276 293 312 346 28 25 12 6 14 353 317 310 312 309 304 304 307 315 322 321 319 321 321 320 325 327 318 314 304 286 293 304 297 299 308 262 211 223 230 230 218 204 198 190 185 184 185 190 196 195 184 177 176 175 176 179 177 174 173 169 167 165 160 155 144 118 99 83 27 20 15 4 357 353 350 353 358 354
310 3 15 18 342 206 249 288 285 285 306 325 358 15 342 333 342 337 317 306 302 299 297 297 299 298 306 320 323 318 317 311 306 305 298 292 291 283 281 292 298 298 302 292 274 279 257 223 222 218 210 202 191 186 188 189 191 191 186 179 176 176 174 176 178 176 176 177 175 171 168 166 162 138 92 44 318 353 8 359 350 346 347 354 359 357 348
38 6 295 278 16 20 342 318 305 285 278 298 326 302 282 296 307 301 300 302 301 299 299 302 306 303 306 319 302 283 283 290 292 288 282 282 289 295 303 311 308 315 326 297 279 288 298 270 233 220 211 200 191 186 187 187 186 183 179 176 174 175 179 182 181 180 185 186 182 178 177 176 168 126 61 39 257 299 337 339 339 342 351 2 0 347 343
69 70 326 334 20 23 313 293 296 287 250 237 208 195 276 278 278 285 296 294 294 298 299 305 320 332 344 331 292 274 269 276 286 293 290 290 296 300 307 312 310 316 350 326 302 305 318 306 231 204 198 189 184 182 179 176 173 171 171 172 174 180 187 188 186 189 195 195 191 189 190 191 189 177 84 56 247 271 307 317 329 353 2 3 355 344 351
34 72 26 311 296 252 270 281 292 303 295 233 154 73 301 262 265 290 298 290 290 294 293 303 332 347 341 314 288 279 275 274 285 293 292 299 305 303 306 311 306 288 306 330 315 331 352 62 152 165 169 168 166 165 163 161 165 170 173 178 186 191 192 189 191 196 199 199 199 200 202 205 202 192 168 206 243 249 267 286 331 4 6 358 354 357 2
333 103 192 255 212 236 270 281 288 299 310 83 84 22 293 271 293 308 299 290 290 288 292 308 329 300 276 281 285 288 289 286 285 280 279 292 299 298 307 314 299 262 259 250 225 228 206 175 162 161 160 157 159 168 170 173 185 192 191 191 194 194 192 192 195 198 199 199 200 202 205 205 196 187 189 206 217 222 229 245 340 2 360 360 7 12 3
318 56 240 277 265 244 261 275 284 294 335 60 63 286 256 275 307 307 291 285 284 281 289 301 287 255 262 276 287 297 305 304 294 289 290 294 294 293 305 311 290 260 264 263 249 251 232 197 188 188 185 183 192 197 193 192 199 203 201 198 196 194 195 196 194 195 197 198 198 199 200 199 193 187 188 198 204 207 209 217 291 343 343 358 12 10 357
310 275 252 296 293 237 232 267 292 308 32 60 258 246 249 277 292 293 289 282 279 281 284 276 268 272 282 290 297 305 312 312 305 302 301 300 301 303 310 315 301 270 262 264 262 260 253 226 206 207 210 211 211 207 200 200 205 207 204 201 198 195 194 192 191 193 195 195 194 193 193 195 194 192 190 191 196 197 201 215 271 326 325 331 355 354 349
339 349 3 3 297 245 229 299 329 352 104 209 242 256 279 276 272 282 286 274 273 283 284 279 283 289 293 299 307 311 314 315 311 313 314 313 313 312 309 310 308 289 271 272 276 273 269 255 231 218 216 218 217 212 209 212 212 209 206 204 199 194 190 188 189 192 193 191 190 190 194 197 195 195 193 187 188 194 202 220 281 320 311 298 315 327 338
59 13 312 219 231 241 224 174 302 268 222 226 234 248 275 276 272 275 277 275 277 274 268 276 290 296 297 304 311 311 312 313 311 317 327 329 328 324 316 310 310 310 298 298 303 300 291 281 266 244 227 223 221 217 220 222 215 208 207 204 196 190 187 186 188 191 191 190 189 186 186 186 190 199 195 185 186 194 205 227 289 321 311 284 276 303 327
204 214 234 241 251 263 244 199 221 251 258 256 245 239 254 268 266 256 263 282 287 278 265 274 292 300 298 299 303 300 299 304 305 310 319 323 327 331 328 322 322 331 323 315 312 311 306 297 288 277 257 238 227 224 226 223 212 206 206 201 194 189 186 186 188 189 189 188 187 185 180 181 196 211 200 189 190 198 207 228 283 323 314 281 267 284 307
272 255 259 273 285 286 282 259 243 250 257 257 248 239 246 257 259 261 267 279 286 285 274 273 290 298 297 296 295 293 294 302 308 311 315 318 323 331 332 324 318 315 307 295 291 296 301 301 295 284 269 249 238 235 233 225 214 209 206 201 196 190 186 185 187 189 189 187 186 189 191 198 214 217 204 196 197 201 206 222 267 314 311 279 260 267 274
328 303 288 289 275 277 287 290 283 276 266 257 245 236 247 263 272 277 277 275 284 297 300 296 299 302 302 299 294 296 302 305 307 310 309 309 315 321 321 316 313 307 294 283 284 287 292 299 300 288 273 260 252 247 240 230 220 211 205 202 198 190 185 185 188 191 191 188 186 192 200 206 211 210 203 201 201 203 206 213 223 247 278 273 259 254 245
230 260 269 274 275 277 278 269 268 284 288 281 276 267 266 275 282 283 282 279 285 326 334 306 298 304 308 303 295 300 308 305 301 305 303 302 307 312 315 317 317 309 294 282 280 282 287 296 302 297 286 275 267 257 248 238 223 210 205 203 197 189 186 189 191 193 193 190 191 197 201 201 205 206 201 202 207 210 211 214 217 209 194 208 275 257 225
278 281 288 305 318 311 303 284 271 276 276 272 280 287 286 291 297 298 296 290 285 189 260 280 292 306 303 299 300 305 307 304 300 301 302 302 304 307 312 319 322 320 311 297 286 283 288 295 299 297 291 285 277 265 255 243 222 207 203 200 192 188 189 191 191 193 195 194 196 201 200 200 206 208 203 205 212 213 209 210 214 208 190 162 44 2 209
293 271 270 278 296 298 291 283 281 285 275 254 272 298 302 302 301 297 295 299 304 272 233 253 272 292 289 296 310 307 301 301 302 303 303 302 302 306 312 318 322 321 319 311 301 293 291 294 294 292 291 290 283 269 257 242 220 207 201 195 190 190 190 189 191 194 195 196 200 203 203 204 207 203 200 205 210 210 209 208 203 199 202 188 70 31 113
246 254 257 242 202 238 264 269 279 286 272 248 289 308 300 291 293 290 284 294 308 301 261 255 250 253 276 297 307 302 301 306 307 310 310 304 302 306 310 312 313 312 308 303 299 296 296 298 296 292 291 293 284 263 248 236 220 207 198 191 186 183 184 188 195 198 196 198 204 204 205 208 210 204 199 202 204 204 206 206 201 204 214 211 198 42 101
238 260 259 234 202 233 257 266 273 273 259 250 293 302 291 285 291 292 287 283 277 267 269 275 269 260 270 288 295 289 291 301 307 312 314 310 308 310 310 307 306 306 305 303 301 301 304 306 303 296 293 293 278 247 229 220 209 200 195 189 183 179 187 198 204 203 202 206 209 206 206 208 209 206 201 197 196 197 201 204 206 211 219 217 211 186 136
231 254 252 230 228 246 257 267 272 273 283 296 294 294 300 303 297 295 308 315 291 268 262 278 288 280 270 277 289 290 283 291 299 303 306 312 317 317 314 312 309 307 306 305 306 306 307 310 308 299 293 288 268 233 213 206 200 196 196 194 189 186 192 202 207 207 208 209 207 207 207 206 206 206 202 197 195 197 201 207 211 217 224 225 217 205 176
233 251 266 289 281 265 268 304 297 298 320 330 319 302 310 317 316 322 337 343 328 309 292 281 288 292 279 270 280 288 287 290 298 297 294 300 310 315 319 322 320 314 309 305 303 305 307 311 311 303 294 285 263 234 217 209 205 204 203 200 194 192 196 202 205 206 206 206 207 210 210 208 208 208 206 206 207 204 202 205 212 220 228 229 223 214 199
232 234 243 327 326 311 295 275 266 283 317 333 327 307 314 333 348 346 343 343 340 334 326 316 313 315 308 295 291 294 293 293 297 298 292 288 291 298 308 317 321 320 314 306 303 303 306 310 312 306 298 288 264 241 226 214 209 208 204 198 197 200 204 205 206 207 209 212 215 216 213 210 209 211 211 212 214 212 208 209 214 221 230 231 225 217 208
252 236 189 179 246 261 259 261 271 294 315 323 312 301 321 346 353 344 333 330 330 329 330 330 331 331 325 318 312 307 303 300 297 294 295 295 295 296 297 300 309 318 315 306 302 303 305 308 307 304 302 298 273 248 236 224 216 213 208 202 203 211 214 212 211 212 215 218 221 221 217 213 213 217 217 216 217 217 216 216 217 222 229 231 223 214 208
250 240 210 203 212 223 267 317 331 324 311 308 309 309 318 332 333 320 303 297 301 308 312 317 322 324 321 320 317 309 304 303 298 293 296 304 307 306 303 297 292 296 303 304 304 306 308 307 303 300 303 302 281 255 245 234 225 221 215 208 208 214 215 210 208 212 216 220 222 220 216 215 218 220 218 216 216 215 213 214 219 225 230 229 217 208 207
240 227 221 240 258 57 12 327 305 288 280 286 294 293 287 286 289 290 286 280 281 287 284 287 302 313 311 310 310 303 298 301 302 300 302 304 306 310 313 306 288 276 285 300 308 311 311 308 301 298 302 301 285 263 248 239 237 236 227 216 213 214 212 207 207 211 214 215 215 213 211 217 223 220 213 210 210 208 209 213 218 224 227 224 215 209 209
236 238 222 352 13 11 325 297 289 284 279 280 285 285 286 286 281 279 279 274 269 273 274 275 284 294 296 300 305 303 300 302 305 308 310 306 302 307 317 315 291 270 276 291 303 309 308 306 302 301 303 300 287 274 260 246 241 240 234 222 213 212 211 208 207 209 209 208 210 211 214 220 222 215 208 205 203 203 207 212 216 219 219 216 213 212 211
110 8 358 352 345 331 310 300 300 298 292 291 293 288 280 278 277 275 273 273 272 270 270 271 276 282 288 297 302 302 303 306 309 314 316 309 303 308 322 323 300 281 278 286 298 305 304 302 302 304 308 302 286 277 270 250 234 226 220 212 206 211 215 212 207 207 206 204 206 208 211 215 213 208 206 207 207 208 211 214 216 216 214 211 212 211 207
109 30 331 326 330 328 316 306 300 295 289 284 282 279 276 277 278 273 270 275 278 274 271 274 281 286 291 296 299 301 305 312 315 318 318 313 307 308 317 315 304 296 291 295 305 309 306 301 300 304 307 304 288 276 267 246 229 219 210 201 199 211 223 220 212 208 205 204 207 211 212 212 211 209 211 214 216 219 222 221 219 217 215 214 214 210 205
150 180 223 239 241 251 265 274 278 283 286 285 284 286 291 294 295 293 290 289 287 284 285 290 294 295 295 295 297 300 304 311 313 310 310 309 305 300 300 305 305 305 308 313 318 319 314 308 304 303 305 303 291 276 259 231 215 211 206 201 204 219 231 226 217 211 208 208 213 218 218 218 218 217 218 220 222 226 228 223 219 218 218 217 212 204 202
138 150 204 230 236 234 231 243 268 281 289 295 296 299 303 303 302 303 303 301 299 298 302 307 307 303 296 292 292 295 296 295 293 296 304 310 308 300 297 304 309 311 315 319 323 327 324 315 306 303 303 303 297 283 265 241 218 208 205 209 219 232 237 230 221 215 213 214 215 215 217 220 223 224 224 225 227 229 226 219 217 219 220 212 203 198 198
82 75 313 290 302 308 310 317 319 316 311 301 294 297 304 307 308 309 308 307 307 308 310 312 308 302 296 290 287 286 286 288 292 296 304 316 318 310 303 306 313 316 314 309 313 331 331 317 308 307 307 307 306 297 281 264 247 231 221 221 225 231 235 232 225 220 218 217 216 215 216 219 223 225 225 225 227 228 224 219 217 219 216 208 201 196 195
39 348 305 310 325 333 335 335 333 327 319 311 307 308 310 312 313 313 313 312 311 311 311 308 300 293 293 295 294 291 286 286 290 296 306 319 324 319 312 315 320 313 292 283 310 335 333 321 317 320 320 319 318 316 307 291 272 253 239 234 233 233 232 229 225 222 220 219 218 218 217 218 221 224 224 224 225 227 225 221 219 216 211 207 204 202 200
352 353 349 344 345 343 338 337 337 333 326 319 316 316 315 313 312 313 316 317 317 317 316 310 298 290 293 299 301 298 292 289 291 301 318 328 327 320 314 321 324 305 276 282 314 324 323 322 322 321 322 322 322 322 318 310 298 279 258 250 251 249 240 232 225 222 220 218 217 216 216 216 217 219 221 223 226 228 225 221 216 212 209 208 207 206 206
351 358 3 358 353 347 338 338 341 340 335 325 314 313 317 318 316 316 317 317 319 321 320 312 301 293 295 302 303 302 301 302 304 310 320 327 324 317 317 329 329 307 274 282 304 306 306 315 320 319 320 321 320 321 320 312 304 299 289 276 270 263 251 239 230 225 222 219 216 214 213 212 213 215 216 219 222 225 225 221 216 213 212 211 210 210 210
309 333 341 341 340 337 334 333 335 337 337 332 323 322 325 323 318 315 315 317 322 329 330 323 310 297 295 303 310 308 306 309 314 317 321 328 329 327 329 336 336 323 290 276 289 295 292 296 307 318 324 324 319 315 314 308 300 297 295 291 286 277 264 250 238 229 225 222 217 213 212 212 212 213 213 214 217 222 225 221 217 214 214 213 213 213 214
280 313 324 325 325 325 324 325 327 333 340 342 340 338 336 330 323 319 321 325 331 340 344 341 330 312 304 308 319 318 311 308 314 322 327 333 336 335 332 332 335 332 310 281 287 302 305 301 301 304 312 322 324 320 314 307 297 290 289 291 291 288 281 269 252 239 233 228 222 218 216 214 212 212 213 214 218 222 224 223 219 217 217 217 216 216 216
276 294 298 298 302 311 319 329 336 341 347 352 351 349 348 344 338 335 339 343 346 348 351 354 351 338 324 319 322 322 318 317 323 328 330 330 335 339 329 322 328 329 315 289 293 309 313 305 296 291 295 310 322 325 323 314 300 290 287 289 290 289 285 278 268 257 247 237 229 225 220 214 209 208 209 212 218 222 223 223 221 219 220 222 221 220 219
267 272 269 270 286 315 338 354 0 355 349 349 350 351 352 352 348 345 345 346 347 346 346 349 351 345 335 327 324 326 333 341 341 336 333 336 342 343 332 319 317 313 298 283 282 287 290 287 280 279 289 305 313 315 319 316 304 295 291 289 291 294 290 282 276 270 258 244 233 226 217 209 206 206 208 212 218 222 223 223 223 223 224 227 227 225 224
270 275 278 287 316 0 19 17 8 353 339 333 334 337 340 340 340 339 335 331 331 334 333 332 337 341 337 330 326 328 336 343 343 337 336 342 348 347 339 329 323 315 303 293 295 303 302 295 286 283 291 307 311 309 310 310 303 297 294 292 293 297 295 287 280 274 263 249 235 222 212 205 204 206 209 213 217 219 220 225 228 229 231 232 230 227 225
297 307 316 340 21 31 20 1 350 341 328 324 329 336 339 337 335 333 328 323 322 320 314 310 315 325 325 319 317 322 328 333 339 343 344 344 343 339 335 333 334 332 325 320 333 345 339 327 316 306 304 307 308 306 306 306 299 293 293 295 296 298 296 291 284 274 259 243 231 220 211 207 209 212 215 217 218 218 220 227 232 234 236 237 233 227 223
337 358 16 28 21 358 340 340 349 346 338 334 338 341 340 337 334 329 326 326 325 320 310 305 308 317 320 318 316 321 327 329 333 341 343 334 325 331 330 330 337 342 338 331 337 354 355 349 343 335 323 314 310 307 306 304 299 291 290 294 298 300 297 291 284 271 252 235 226 219 214 212 213 215 217 219 220 219 221 226 231 235 240 243 238 229 223
29 31 22 3 345 334 332 345 357 353 344 339 336 332 331 330 327 323 325 332 338 336 328 320 314 313 318 319 315 315 321 321 322 330 337 332 325 331 334 330 332 337 336 333 342 360 2 355 352 351 344 335 328 320 313 307 301 294 291 293 297 299 297 291 282 269 253 238 228 221 217 215 214 212 211 214 218 218 219 223 230 237 243 244 238 229 222
33 14 354 344 344 346 348 352 355 346 334 324 322 324 325 325 323 323 326 332 337 340 339 335 329 327 328 325 316 311 316 312 301 310 328 333 328 330 334 329 322 326 332 336 347 359 1 358 357 358 356 353 348 340 330 319 308 298 293 293 295 298 298 292 283 272 259 247 237 228 222 219 217 216 215 217 220 221 222 226 233 240 245 245 237 228 222
8 351 345 346 351 350 343 336 330 322 317 317 320 321 319 319 323 329 329 326 325 331 340 343 342 343 345 341 331 326 328 324 310 304 312 319 322 328 335 333 324 325 330 334 339 346 353 357 358 357 356 356 354 350 344 334 322 311 301 296 294 295 296 295 290 281 269 258 249 242 234 229 225 223 222 222 225 228 230 232 235 240 244 245 238 229 224
347 335 327 322 320 318 313 307 306 309 311 313 313 311 307 305 312 321 321 317 317 326 337 340 339 338 339 341 341 339 338 339 339 334 328 324 322 324 327 329 327 323 320 319 325 338 354 1 355 348 348 351 352 351 348 342 333 322 312 303 297 294 294 295 293 288 279 269 261 254 248 241 236 231 228 228 230 234 238 243 246 247 247 243 237 229 225
320 315 310 306 307 309 308 306 307 307 308 308 309 307 301 294 293 304 314 318 322 329 333 334 334 333 331 331 336 341 341 341 346 351 351 349 346 343 340 339 338 335 331 332 341 355 3 3 356 349 346 346 347 346 344 340 334 327 320 312 304 297 295 294 293 291 286 278 269 262 256 249 244 240 237 236 237 240 244 250 256 256 251 242 234 228 226
322 325 322 317 314 314 314 315 315 311 303 298 301 307 304 294 291 303 319 327 330 330 329 329 333 337 336 332 334 344 351 352 354 359 2 3 3 2 1 359 357 355 355 358 3 5 2 359 357 355 352 348 344 342 341 338 334 329 324 319 312 304 299 296 294 293 291 286 278 269 262 256 251 247 245 244 245 244 245 252 260 260 254 243 233 226 224